Regional Weather Roundup
Issued by NWS

Home | Current Version | Previous Version | Graphics & Text | Print | Product List | Glossary On
Versions: 1 2 3 4 5 6 7 8 9 10 11 12 13 14 15 16 17 18 19 20 21 22 23 24 25 26 27 28 29 30 31 32 33 34 35 36 37 38 39 40 41 42 43 44 45 46 47 48 49 50
253
ASUS43 KDTX 192010
RWRMI
MICHIGAN HOURLY REGIONAL WEATHER ROUNDUP
NATIONAL WEATHER SERVICE DETROIT/PONTIAC MI
ISSUED BY NATIONAL WEATHER SERVICE GRAND RAPIDS MI
300 PM EST THU JAN 19 2017

NOTE: "FAIR" INDICATES FEW OR NO CLOUDS BELOW 12,000 FEET WITH NO
SIGNIFICANT WEATHER AND/OR OBSTRUCTION TO VISIBILITY.

MIZ047>049-052>055-059>063-066>070-074>076-081>083-192100-
SOUTHEAST LOWER MICHIGAN

CITY           SKY/WX    TMP DP  RH WIND       PRES   REMARKS
ADRIAN         CLOUDY    35  34  96 S8        29.99F WCI  29
ALMA           CLOUDY    37  34  90 S9        29.94F FOG     WCI  30
ANN ARBOR      CLOUDY    36  33  89 SE7       29.97F WCI  30
BAD AXE        CLOUDY    33  32  95 S8        29.97R FOG     WCI  26
DETROIT CITY   CLOUDY    37  32  81 MISG      29.99F
DETROIT        CLOUDY    37  32  82 S3        29.98F HAZE
FLINT          CLOUDY    41  33  73 S3        29.95F
GROSSE ILE     CLOUDY    34  32  92 S6        29.98F FOG     WCI  29
HILLSDALE      CLOUDY    36  32  87 S5        29.95R FOG     WCI  32
HOWELL         SUNNY     42  32  69 SE5       29.94F

CITY           SKY/WX    TMP DP  RH WIND       PRES   REMARKS
JACKSON        CLOUDY    42  32  67 S6        29.95F
LANSING        CLOUDY    41  32  70 S7        29.95F
MASON          CLOUDY    41  35  78 S3        29.95F
MONROE         CLOUDY    38  34  88 S8        29.98F WCI  32
MT. CLEMENS    PTSUNNY   37  33  88 S10       29.96F FOG     WCI  29
PONTIAC        CLOUDY    41  32  70 S7        29.94F
PORT HOPE        N/A     35  33  92 VRB3      29.94F
PORT HURON     CLOUDY    34  32  93 S5        29.99S FOG     WCI  30
TRI CITIES     CLOUDY    37  35  92 W5        29.95F FOG     WCI  33
YPSILANTI      CLOUDY    38  34  85 S7        29.97F WCI  33
$$
MIZ043>046-050>051-056>058-064>065-071>073-077>080-192100-
SOUTHWEST LOWER MICHIGAN

CITY           SKY/WX    TMP DP  RH WIND       PRES   REMARKS
BATTLE CREEK   CLOUDY    42  35  76 S7        29.94F
BENTON HARBOR  CLOUDY    41  36  82 SE8       29.94S HAZE
BIG RAPIDS     CLOUDY    40  33  74 SE5       29.90F
COLDWATER      PTSUNNY   38  35  88 SE6       29.95F WCI  34
HOLLAND        CLOUDY    38  35  89 SE6       29.94F WCI  33
GRAND RAPIDS   CLOUDY    40  33  76 S7        29.94F
KALAMAZOO      MOSUNNY   40  33  76 SE5       29.95F HAZE
MARSHALL       SUNNY     42  35  74 SE6       29.94F
MOUNT PLEASANT MOSUNNY   42  34  75 SW3       29.91F
MUSKEGON       CLOUDY    40  34  79 SE7       29.94F HAZE
STURGIS        MOSUNNY   39  36  87 SE7       29.95S FOG     WCI  34
$$
MIZ016>042-192100-
NORTHERN LOWER MICHIGAN

CITY           SKY/WX    TMP DP  RH WIND       PRES   REMARKS
ALPENA         CLOUDY    36  32  85 S3        29.93R
BEAVER ISLAND  CLOUDY    35  35 100 SW6       29.88F FOG     WCI  30
BELLAIRE       CLOUDY    37  33  87 CALM      29.92S
CADILLAC       CLOUDY    33  33  96 S8        29.89F FOG     WCI  27
CHARLEVOIX     CLOUDY    35  35  99 S5        29.93F FOG     WCI  31
GAYLORD        CLOUDY    36  32  85 S7        29.89R FOG     WCI  30
HOUGHTON LAKE  CLOUDY    34  32  92 SW6       29.91S FOG     WCI  29
MANISTEE       CLOUDY    38  34  85 S7        29.90F WCI  33
OSCODA         CLOUDY    36  34  92 SW6       29.94R FOG     WCI  32
PELLSTON       CLOUDY    35  32  88 S3        29.91F FOG
TRAVERSE CITY  CLOUDY    37  33  85 SW6       29.89F WCI  32
LUDINGTON      CLOUDY    39  36  87 S8        29.90F WCI  34
$$
MIZ007>008-015-192100-
EASTERN UPPER MICHIGAN

CITY           SKY/WX    TMP DP  RH WIND       PRES   REMARKS
KINROSS        CLOUDY    35  33  92 S7        29.90S FOG     WCI  29
MACKINAC ISLAN CLOUDY    34  34 100 S3        29.91S FOG
NEWBERRY       FOG       33  32  96 S12       29.87R VSB<1/4 WCI  24
S. S. MARIE    CLOUDY    37  33  85 S5        29.90S FOG     WCI  33
$$
MIZ004>006-011>014-085-192100-
CENTRAL UPPER MICHIGAN

CITY           SKY/WX    TMP DP  RH WIND       PRES   REMARKS
MANISTIQUE     FOG       32  31  98 SW9       29.86S VSB 1/4 WCI  24
ESCANABA       FOG       34  32  92 S7        29.87S VSB 1/2 WCI  28
SAWYER-GWINN   FOG       32  32 100 SW10      29.81F VSB 1   WCI  24
$$
MIZ001>003-009>011-084-192100-
WESTERN UPPER MICHIGAN

CITY           SKY/WX    TMP DP  RH WIND       PRES   REMARKS
IRON MOUNTAIN  SUNNY     39  31  72 SE6       29.80F WCI  35
HOUGHTON       CLOUDY    36  33  89 SE5       29.76S FOG     WCI  32
COPPER HARBOR    N/A     36  32  85 CALM      29.77F
IRONWOOD       SUNNY     49  37  63 S5        29.75F
$$

ABBREVIATIONS USED IN REMARKS
   TC - TEMPERATURE IN CELSIUS
  WCI - WIND CHILL INDEX
   HX - HEAT INDEX
  VSB - VISIBILITY





USA.gov is the U.S. government's official web portal to all federal, state and local government web resources and services.